Hollywood, FL

1:19 AM EST on February 26, 2017 (GMT -0500)
North Perry

Weather History for KHWO - March, 2013

Change the Weather History Date:

Tuesday, March 12, 2013

  Actual Average (KFLL) Record (KFLL)
Temperature  
Mean Temperature 74 °F -  
Max Temperature 82 °F 78 °F 91 °F (1964)
Min Temperature 68 °F 62 °F 40 °F (1924)
Cooling Degree Days 9    
Growing Degree Days 24 (Base 50)    
Moisture  
Dew Point 64 °F    
Average Humidity 70    
Maximum Humidity 84    
Minimum Humidity 60    
Precipitation  
Precipitation 0.00 in - - ()
Sea Level Pressure  
Sea Level Pressure 29.99 in    
Wind  
Wind Speed 9 mph (South)    
Max Wind Speed 17 mph    
Max Gust Speed 23 mph    
Visibility 10 miles    
Events      
Averages and records for this station are not official NWS values.
T = Trace of Precipitation, MM = Missing Value Source: NWS Daily Summary

Daily Weather History Graph

Daily Weather History Graph

Search for Another Location

Airport or City:

Trip Planner

Search our weather history database for the weather conditions in past years. The results will help you decide how hot, cold, wet, or windy it might be!

Date:

Astronomy

Mar. 12, 2013 Rise Set
Actual Time 7:33 AM EDT 7:28 PM EDT
Civil Twilight 7:10 AM EDT 7:51 PM EDT
Nautical Twilight 6:43 AM EDT 8:18 PM EDT
Astronomical Twilight 6:16 AM EDT 8:44 PM EDT
Moon 7:47 AM EDT (3/12) 8:29 PM EDT (3/12)
Length of Visible Light 12h 41m
Length of Day
11h 55m
New Moon, 1% of the Moon is Illuminated
Mar 12
New Moon
Mar 19
First Quarter
Mar 27
Full
Apr 3
Last Quarter
Apr 10
New

Hourly Weather History & Observations

Time (EDT) Temp. Heat Index Dew Point Humidity Pressure Visibility Wind Dir Wind Speed Gust Speed Precip Events Conditions
12:53 AM 69.1 °F - 61.0 °F 75% 30.01 in 10.0 mi SE 5.8 mph - N/A   Clear
1:53 AM 70.0 °F - 60.1 °F 71% 30.00 in 10.0 mi SSE 6.9 mph - N/A   Clear
2:53 AM 68.0 °F - 60.1 °F 76% 29.99 in 10.0 mi SSE 4.6 mph - N/A   Clear
3:53 AM 69.1 °F - 62.1 °F 78% 29.97 in 10.0 mi SSE 8.1 mph - N/A   Clear
4:53 AM 70.0 °F - 62.1 °F 76% 29.96 in 10.0 mi SSE 8.1 mph - N/A   Partly Cloudy
5:53 AM 70.0 °F - 63.0 °F 78% 29.95 in 10.0 mi SSE 9.2 mph - N/A   Clear
6:53 AM 69.1 °F - 62.1 °F 78% 29.98 in 10.0 mi SSE 4.6 mph - N/A   Clear
7:53 AM 69.1 °F - 63.0 °F 81% 29.99 in 10.0 mi South 3.5 mph - N/A   Scattered Clouds
8:53 AM 73.0 °F - 64.9 °F 76% 29.99 in 10.0 mi South 10.4 mph - N/A   Clear
9:34 AM 75.2 °F - 66.2 °F 73% 30.01 in 10.0 mi SSE 10.4 mph 20.7 mph N/A   Mostly Cloudy
9:53 AM 75.0 °F - 64.9 °F 71% 30.01 in 10.0 mi South 15.0 mph - N/A   Overcast
10:29 AM 75.2 °F - 66.2 °F 73% 30.03 in 10.0 mi South 13.8 mph - N/A   Overcast
10:53 AM 78.1 °F - 66.9 °F 68% 30.03 in 10.0 mi SSE 16.1 mph 21.9 mph N/A   Mostly Cloudy
11:53 AM 80.1 °F 82.3 °F 66.9 °F 64% 30.02 in 10.0 mi SSE 16.1 mph 21.9 mph N/A   Mostly Cloudy
12:10 PM 80.6 °F 83.2 °F 68.0 °F 65% 30.03 in 10.0 mi South 13.8 mph 19.6 mph N/A   Mostly Cloudy
12:23 PM 80.6 °F 82.7 °F 66.2 °F 61% 30.02 in 10.0 mi South 13.8 mph 19.6 mph N/A   Mostly Cloudy
12:53 PM 79.0 °F - 64.9 °F 62% 30.01 in 10.0 mi South 15.0 mph 19.6 mph N/A   Mostly Cloudy
1:53 PM 80.1 °F 81.9 °F 64.9 °F 60% 29.99 in 10.0 mi SSE 17.3 mph 23.0 mph N/A   Mostly Cloudy
2:53 PM 78.1 °F - 64.9 °F 64% 29.97 in 10.0 mi South 11.5 mph 19.6 mph N/A   Overcast
3:53 PM 77.0 °F - 64.9 °F 66% 29.97 in 10.0 mi SSW 13.8 mph 19.6 mph N/A   Overcast
4:53 PM 78.1 °F - 64.9 °F 64% 29.96 in 10.0 mi SW 10.4 mph - 0.00 in   Overcast
5:53 PM 79.0 °F - 64.0 °F 60% 29.96 in 10.0 mi SW 10.4 mph - N/A   Overcast
6:53 PM 77.0 °F - 63.0 °F 62% 29.96 in 10.0 mi SW 11.5 mph - N/A   Overcast
7:53 PM 75.9 °F - 62.1 °F 62% 29.96 in 10.0 mi SW 10.4 mph - N/A   Scattered Clouds
8:53 PM 73.9 °F - 63.0 °F 68% 29.99 in 10.0 mi SW 8.1 mph - N/A   Mostly Cloudy
9:53 PM 72.0 °F - 64.0 °F 76% 30.02 in 10.0 mi West 6.9 mph - N/A   Scattered Clouds
10:53 PM 71.1 °F - 64.9 °F 81% 30.02 in 10.0 mi West 5.8 mph - N/A   Partly Cloudy
11:53 PM 70.0 °F - 64.9 °F 84% 30.03 in 10.0 mi West 6.9 mph - N/A   Scattered Clouds